Weather in Zavidovo

Russia / Tver Oblast     56°31′44″N   36°31′40″E
temp.,
°C
wind,
m/s
gust,
m/s
humid.,
%
clouds,
%
prec.,
mm/h
press.,
hPa
HPBL,
m
29 july, thu
thu2900:00+15ese1198100 0.0 100924
03:00+16nw009795 0.0 100735
06:00+17wnw249651 0.0 1007161
09:00+20wnw357780 0.1 1007773
12:00+25wnw355487 0.1 10061463
15:00+26wnw3651100 0.1 10051729
18:00+26wsw265373 0.0 10041241
21:00+20w236995 0.0 100552
30 july, fri
fri3000:00+17wsw2277100 0.0 100522
03:00+17sw2383100 0.2 100560
06:00+17wsw2594100 0.3 1005126
09:00+18sw259390 0.4 1005226
12:00+24wsw226713 1.1 1004982
15:00+23wsw357952 5.0 1004954
18:00+22wsw388263 2.9 1003592
21:00+18wsw238664 3.0 100361
31 july, sat
sat3100:00+16sw388699 0.0 1003160
03:00+15sw412850 0.0 1003333
06:00+17wsw412747 0.0 1003593
09:00+21w6124965 0.0 10031577
12:00+23wsw7124562 0.0 10041984
15:00+23wsw5114791 0.0 10042142
18:00+22wsw4105511 0.0 10051599
21:00+18wsw3972100 0.0 1006233
1 august, sun
sun100:00+15sw388551 0.0 1007172
03:00+14sw2790100 0.0 1009140
06:00+15ssw2586100 0.0 1009144
09:00+20sw3668100 0.0 1009377
12:00+17sse2393100 2.1 1009139
15:00+17sse41293100 3.9 1007420
18:00+21sw2590100 2.6 1006420
21:00+19wnw389379 2.9 1007331
2 august, mon
mon200:00+16ssw239655 0.0 100852
03:00+15ssw2696100 0.0 1008121
06:00+16ssw27965 0.0 1008174
09:00+22sw366914 0.0 1007421
12:00+27ssw354764 0.0 10061626
15:00+28s4743100 0.0 10042030
18:00+19s2498100 5.7 1003157
21:00+18s38965 5.8 1001175